Flag for Canada Weather past 2 weeks in Prince George, British Columbia, Canada

Now
43 °F

Partly sunny.


Feels Like: 39 °F
Forecast: 38 / 54 °F
Wind: 7 mph from Southwest

Location: Prince George

Current Time: Mar 28, 2015 at 11:25:29 AM

Latest Report: Mar 28, 2015 at 11:00 AM


Visibility: 9 mi

Pressure: 30.03 "Hg

Humidity: 81%

Dew point: 37 °F

Location of Prince GeorgeLocation

Historic Weather in Prince George — Graph

°F

Prince George temperature yesterday

Maximum temperature yesterday: 46 °F (at 9:00 AM)
Minimum temperature yesterday: 37 °F (at 11:00 PM)
Average temperature yesterday: 42 °F

Past Weeks' High & Low Weather Summary

 TemperatureHumidityPressure
High55 °F (Mar 13, 3:00 PM)100% (Mar 16, 7:55 AM)30.46 "Hg (Mar 16, 7:55 AM)
Low16 °F (Mar 16, 7:00 AM)27% (Mar 16, 5:00 PM)29.20 "Hg (Mar 14, 2:00 PM)
Average37 °F82%29.99 "Hg
* Reported Mar 13 10:00 AM — Mar 28 10:00 AM, Prince George, Weather by CustomWeather, © 2015

Note: Actual official high and low records may vary slightly from our data, if they occured in-between our weather recording intervals... More about our weather records

Advertising

Prince George weather history for previous 24 hours

 ConditionsComfort  
Time TempWeatherWind HumidityBarometerVisibility
10:00 AM
Sat, Mar 28
41 °FSunny.12 mph87%30.01 "Hg9 mi
9:00 AM37 °FSunny.8 mph93%29.99 "Hg9 mi
8:00 AM36 °FPartly sunny.9 mph93%29.97 "Hg9 mi
7:00 AM34 °FPassing clouds.3 mph100%29.95 "Hg9 mi
6:00 AM36 °FOvercast.No wind100%29.91 "Hg9 mi
5:00 AM36 °FOvercast.3 mph100%29.87 "Hg9 mi
4:00 AM36 °FMostly cloudy.6 mph100%29.84 "Hg9 mi
3:00 AM37 °FLight rain. Mostly cloudy.7 mph93%29.82 "Hg9 mi
2:49 AM37 °FLight rain. Mostly cloudy.10 mph93%29.82 "Hg9 mi
2:00 AM37 °FLight rain. Overcast.5 mph93%29.81 "Hg9 mi
1:54 AM37 °FLight rain. Overcast.7 mph93%29.80 "Hg9 mi
1:00 AM37 °FLight rain. Mostly cloudy.3 mph93%29.79 "Hg9 mi
12:00 AM37 °FLight rain. Low clouds.3 mph100%29.79 "Hg9 mi
11:58 PM
Fri, Mar 27
37 °FLight rain. Low clouds.5 mph100%29.79 "Hg9 mi
11:00 PM37 °FOvercast.2 mph100%29.79 "Hg9 mi
10:00 PM39 °FOvercast.5 mph93%29.79 "Hg9 mi
9:00 PM39 °FMostly cloudy.5 mph93%29.78 "Hg9 mi
8:00 PM41 °FLight rain. Overcast.7 mph93%29.77 "Hg9 mi
7:00 PM43 °FLight rain. More clouds than sun.13 mph93%29.76 "Hg9 mi
6:55 PM43 °FLight rain. More clouds than sun.13 mph93%29.76 "Hg9 mi
6:00 PM45 °FLight rain. Mostly cloudy.9 mph100%29.74 "Hg9 mi
5:00 PM46 °FLight rain. Mostly cloudy.9 mph93%29.75 "Hg9 mi
4:03 PM46 °FLight rain. Overcast.6 mph93%29.76 "Hg9 mi
4:01 PM46 °FOvercast.6 mph93%29.76 "Hg9 mi
3:00 PM46 °FLight rain. Mostly cloudy.No wind87%29.78 "Hg9 mi
2:00 PM46 °FLight rain. Mostly cloudy.5 mph93%29.83 "Hg9 mi
1:00 PM46 °FLight rain. Cloudy.10 mph93%29.86 "Hg9 mi
12:00 PM46 °FLight rain. Overcast.13 mph87%29.88 "Hg9 mi
11:00 AM46 °FLight rain. Mostly cloudy.10 mph87%29.90 "Hg9 mi
Weather by CustomWeather, © 2015

See weather overviewHow to use our weather pages